Regional Weather Roundup
Issued by NWS

Home | Current Version | Previous Version | Graphics & Text | Print | Product List | Glossary On
Versions: 1 2 3 4 5 6 7 8 9 10 11 12 13 14 15 16 17 18 19 20 21 22 23 24 25 26 27 28 29 30 31 32 33 34 35 36 37 38 39 40 41 42 43 44 45 46 47 48 49 50
000
ASUS43 KFSD 110802
RWRSD

WEATHER ROUNDUP FOR SOUTH DAKOTA
NATIONAL WEATHER SERVICE SIOUX FALLS SD
200 AM CST THU FEB 11 2016

NOTE: "FAIR" INDICATES FEW OR NO CLOUDS BELOW 12,000 FEET WITH NO
SIGNIFICANT WEATHER AND/OR OBSTRUCTIONS TO VISIBILITY.


SDZ001>005-009-010-012>017-110900-
NORTHWEST AND NORTH CENTRAL SOUTH DAKOTA

CITY           SKY/WX    TMP DP  RH WIND       PRES   REMARKS
BUFFALO          N/A     32  29  88 S8        29.99F WCI  25
FAITH            N/A     28  23  81 S10       30.11F WCI  19
MOBRIDGE       CLOUDY    18  14  84 E7        30.15F WCI   9
$$

SDZ012>016-024>037-041>051-057-063-072>074-110900-
SOUTHWEST AND SOUTH CENTRAL SOUTH DAKOTA

CITY           SKY/WX    TMP DP  RH WIND       PRES   REMARKS
RAPID CTY ARPT CLOUDY    28  26  92 S9        30.09F WCI  19
PIERRE         CLOUDY    21  19  92 E6        30.18S WCI  13
CUSTER         CLOUDY    35  21  56 W10       30.05F WCI  27
ELLSWORTH AFB  CLOUDY    30  28  95 S12       30.07  WCI  20
PHILIP         CLOUDY    29  26  89 SW7       30.16F WCI  22
PINE RIDGE     CLOUDY    26  23  88 E5        30.12F FOG     WCI  20
WINNER         CLOUDY    27  21  78 N5        30.18S WCI  22
$$

SDZ004>011-016>023-039-040-110900-
NORTHEAST SOUTH DAKOTA

CITY           SKY/WX    TMP DP  RH WIND       PRES   REMARKS
ABERDEEN       CLOUDY    13   7  77 CALM      30.25R
WATERTOWN      CLOUDY    11   4  73 CALM      30.19F
BROOKINGS      CLOUDY    11   6  81 E6        30.20F WCI   1
SISSETON         N/A     -1  -3  91 N5        30.26S WCI -11
$$

SDZ017-020-022-023-036>040-048>070-110900-
SOUTHEAST SOUTH DAKOTA

CITY           SKY/WX    TMP DP  RH WIND       PRES   REMARKS
SIOUX FALLS    CLOUDY    13   4  67 E7        30.24F WCI   3
HURON          CLOUDY    15  10  80 SE5       30.23S WCI   8
CHAMBERLAIN    CLOUDY    22  19  89 CALM      30.21R
MITCHELL       CLOUDY    18  12  77 E7        30.24F WCI   9
YANKTON        CLOUDY    16  10  79 NE8       30.24F WCI   5
$$

ABBREVIATIONS USED IN REMARKS
   TC - TEMPERATURE IN CELSIUS
  WCI - WIND CHILL INDEX
   HX - HEAT INDEX
  VSB - VISIBILITY




USA.gov is the U.S. government's official web portal to all federal, state and local government web resources and services.